Weather in Korotsko

Russia / Novgorod Oblast     57°56′13″N   33°14′53″E
temp.,
°C
wind,
m/s
gust,
m/s
humid.,
%
clouds,
%
prec.,
mm/h
press.,
hPa
HPBL,
m
24 september, fri
fri2400:00+6sse4992100 0.0 1005627
03:00+4sse41291100 0.0 1002648
06:00+6se51185100 0.0 1000950
09:00+6se5128053 0.0 999837
12:00+7se51076100 0.0 999932
15:00+6se51087100 0.2 10001041
18:00+6se4989100 0.0 1001976
21:00+7se4990100 0.1 1002822
25 september, sat
sat2500:00+7se3992100 0.1 1003608
03:00+7se3993100 0.1 1003537
06:00+7sse3895100 0.1 1003569
09:00+7sse3895100 0.3 1003602
12:00+8s4994100 0.2 1003725
15:00+8s3896100 2.1 1002530
18:00+8s3898100 0.6 1003552
21:00+8sw2699100 3.1 1003411
26 september, sun
sun2600:00+8wnw3799100 0.9 1004425
03:00+7wnw41098100 1.5 1006668
06:00+6nw41098100 0.4 1009529
09:00+7nw4997100 0.4 1011690
12:00+8nw4992100 0.4 1013784
15:00+9nnw4991100 1.1 1016807
18:00+9nnw41092100 0.4 1018690
21:00+7nnw3109891 0.5 1020449
27 september, mon
mon2700:00+7nnw3898100 0.0 1022372
03:00+7n269592 0.1 1024383
06:00+7n279796 0.0 1025281
09:00+8n269468 0.0 1026296
12:00+11nne347747 0.0 1027771
15:00+12n347298 0.1 10281083
18:00+10n2686100 0.3 1028278
21:00+6ne269625 0.3 1030135
28 september, tue
tue2800:00+6ne25966 0.0 1030107
03:00+5ene23978 0.0 103260
06:00+4ene23979 0.0 103356
09:00+7ene248849 0.0 1033198
12:00+10ene247692 0.0 1034551
15:00+11ene227168 0.0 1033630
18:00+9ne118354 0.0 103310
21:00+6ene119346 0.0 103410